Regional Weather Roundup
Issued by NWS

Home | Current Version | Previous Version | Graphics & Text | Print | Product List | Glossary On
Versions: 1 2 3 4 5 6 7 8 9 10 11 12 13 14 15 16 17 18 19 20 21 22 23 24 25 26 27 28 29 30 31 32 33 34 35 36 37 38 39 40 41 42 43 44 45 46 47 48 49 50
000
ASUS43 KDTX 240510
RWRMI
MICHIGAN HOURLY REGIONAL WEATHER ROUNDUP
NATIONAL WEATHER SERVICE DETROIT/PONTIAC MI
100 AM EDT TUE OCT 24 2017

NOTE: "FAIR" INDICATES FEW OR NO CLOUDS BELOW 12,000 FEET WITH NO
SIGNIFICANT WEATHER AND/OR OBSTRUCTION TO VISIBILITY.

MIZ047>049-052>055-059>063-066>070-074>076-081>083-240600-
SOUTHEAST LOWER MICHIGAN

CITY           SKY/WX    TMP DP  RH WIND       PRES   REMARKS
ADRIAN         LGT RAIN  49  45  86 W13G24    29.56R
ALMA           RAIN      48  46  93 W15G26    29.40R
ANN ARBOR      LGT RAIN  50  46  86 SW21G35   29.49R
BAD AXE        CLOUDY    58  55  88 S22G30    29.25F
CARO           DRIZZLE   50  48  93 SW17G28   29.30R
DETROIT CITY   LGT RAIN  53 N/A N/A SW16G24   29.46R
DETROIT        LGT RAIN  52  50  93 SW20G30   29.50R
FLINT          LGT RAIN  49  47  93 W16G26    29.41R FOG
GROSSE ILE     CLOUDY    52  49  90 W15G25    29.49R
HILLSDALE      LGT RAIN  46  45  93 W10       29.55R
HOWELL         LGT RAIN  48  47  95 W21       29.46R

CITY           SKY/WX    TMP DP  RH WIND       PRES   REMARKS
JACKSON        RAIN      48  46  93 SW15G24   29.53R FOG
LAMBERTVILLE   MOCLDY    52  46  79 W8        29.55R
LANSING        RAIN      48  44  86 W21       29.47R
LAPEER         DRIZZLE   49  48  94 W21G28    29.37R
MASON          RAIN      49  45  85 W16G24    29.49R
MONROE         CLOUDY    52  48  84 W17       29.51R
MT. CLEMENS    DRIZZLE   54  54 100 SW15      29.41R
PONTIAC        LGT RAIN  50  50 100 SW17G26   29.43R FOG
PORT HOPE        N/A     59  55  87 SE18G28   29.24F
PORT HURON     CLOUDY    55  52  88 S13G25    29.39R
TRI CITIES     LGT RAIN  48  48 100 W21       29.34R FOG
MIDLAND        DRIZZLE   48  47  97 W14G22    29.31S
TROY           DRIZZLE   52  51  93 SW14G23   29.45R
SAGINAW HB     LGT RAIN  46  45  93 W18G28    29.33R
$$
MIZ043>046-050>051-056>058-064>065-071>073-077>080-240600-
SOUTHWEST LOWER MICHIGAN

CITY           SKY/WX    TMP DP  RH WIND       PRES   REMARKS
BATTLE CREEK   LGT RAIN  49  48  97 SW7       29.54S
BENTON HARBOR  CLOUDY    54  48  80 SW13G21   29.55F
BIG RAPIDS     LGT SNOW  46  42  84 NW13G24   29.42S
COLDWATER      LGT RAIN  49  49 100 SW9       29.56F
FREMONT        RAIN      47  47 100 W8        29.47F
HOLLAND        CLOUDY    49  47  93 S3        29.52F
GRAND RAPIDS   RAIN      48  48 100 W8        29.50F
IONIA          LGT RAIN  47  45  92 W14G21    29.47R
KALAMAZOO      CLOUDY    50  46  86 SW8       29.55S
LUDINGTON      LGT RAIN  49  44  82 NW7G20    29.46F
MARSHALL       LGT RAIN  47  47  98 SW7       29.54R
MOUNT PLEASANT LGT RAIN  49  46  88 W15G23    29.35F
MUSKEGON       RAIN      49  47  93 CALM      29.50F
SOUTH HAVEN    CLOUDY    55  46  71 W7        29.54S
$$
MIZ016>042-240600-
NORTHERN LOWER MICHIGAN

CITY           SKY/WX    TMP DP  RH WIND       PRES   REMARKS
ALPENA         LGT RAIN  53  53 100 SW5       29.23F FOG
BEAVER ISLAND  MIX PCPN  48  45  88 N18G32    29.36F
BELLAIRE       MIX PCPN  47  45  91 NW5       29.36F
CADILLAC       MIX PCPN  45  44  97 NW9G23    29.37F
CHARLEVOIX     HVY RAIN  49  49  98 NW24G37   29.37F
FRANKFORT      RAIN      50  47  89 NW12G17   29.43F
GAYLORD        LGT RAIN  46  43  89 NW12G18   29.28F FOG
GRAYLING       RAIN      46  44  91 W13G18    29.29F
HARBOR SPRINGS HVY RAIN  48  47  94 NW14G31   29.25F
HOUGHTON LAKE  LGT RAIN  46  44  93 NW13G22   29.30F FOG
MANISTEE       HVY RAIN  50  48  93 NW14G21   29.43F
OSCODA         CLOUDY    60  57  89 SE15G26   29.23F
PELLSTON       LGT RAIN  49  47  93 NW24G35   29.25F FOG
ROGERS CITY    CLOUDY    53  52  97 S5        29.21F
TRAVERSE CITY  RAIN      50  46  86 NW16      29.38F FOG
$$
MIZ007>008-015-240600-
EASTERN UPPER MICHIGAN

CITY           SKY/WX    TMP DP  RH WIND       PRES   REMARKS
KINROSS        LGT RAIN  49  48  97 N22G32    29.25F FOG
MACKINAC ISLAN LGT RAIN  50  50 100 N25G36    29.22F
NEWBERRY       LGT SNOW  45  44  97 N18G26    29.37F
S. S. MARIE    RAIN      51  49  92 N14G23    29.28F FOG
MUNISING         N/A     53  50  89 N22       29.46F
$$
MIZ004>006-011>014-085-240600-
CENTRAL UPPER MICHIGAN

CITY           SKY/WX    TMP DP  RH WIND       PRES   REMARKS
MANISTIQUE     MIX PCPN  46  41  81 N16G22    29.40F
ESCANABA       CLOUDY    47  44  90 NW7       29.47F
MENOMINEE      CLOUDY    47  45  93 NW3       29.49F
SAWYER-GWINN   CLOUDY    47  45  90 N13       29.51F
$$
MIZ001>003-009>011-084-240600-
WESTERN UPPER MICHIGAN

CITY           SKY/WX    TMP DP  RH WIND       PRES   REMARKS
IRON MOUNTAIN  CLOUDY    48  40  73 NW10      29.50F
HOUGHTON       CLOUDY    50  45  83 NW15      29.57F
COPPER HARBOR    N/A     51  47  86 E8        29.57F
IRONWOOD       CLOUDY    43  40  89 NW17      29.69F
$$

ABBREVIATIONS USED IN REMARKS
   TC - TEMPERATURE IN CELSIUS
  WCI - WIND CHILL INDEX
   HX - HEAT INDEX
  VSB - VISIBILITY




USA.gov is the U.S. government's official web portal to all federal, state and local government web resources and services.